^^
Saratoga-Weather Station Historical Data
Daily Summary for March 19, 2020 Units:  English    Metric   Both
Daily Weekly Monthly Yearly Custom
  High: Low: Average:
Temperature: 77.7 °F 56.1 °F 66.7 °F
Dew Point: 60.3 °F 48.2 °F 54 °F
Humidity: 78% 49% 64%
Wind Speed: 4mph 0mph 0.5mph
Wind Gust: 8mph - -
Wind- - ESE
Pressure: 30.1 in 29.9 in -
Precipitation: 0 in    
Historical Graphs
 
 
Tabular Data for March 19, 2020
Time Temperature Dew Point Pressure Wind Wind Speed Wind Gust Humidity Rainfall Rate (Hourly) solar
00:01 62.4 °F 53.2 °F 30.1 in Calm     72% 0 in 0 W/m2
00:06 62.2 °F 52.7 °F 30.1 in East 0.9 mph 1 mph 71% 0 in 0 W/m2
00:11 62.4 °F 52.9 °F 30.1 in Calm   2 mph 71% 0 in 0 W/m2
00:16 62.8 °F 53.2 °F 30.1 in Calm   1 mph 71% 0 in 0 W/m2
00:21 62.8 °F 52.9 °F 30.1 in Calm   1 mph 70% 0 in 0 W/m2
00:26 62.8 °F 52.9 °F 30.1 in SE 0.9 mph 1 mph 70% 0 in 0 W/m2
00:31 62.8 °F 52.9 °F 30.1 in Calm   1 mph 70% 0 in 0 W/m2
00:36 62.8 °F 52.9 °F 30.1 in Calm   2 mph 70% 0 in 0 W/m2
00:41 62.6 °F 52.7 °F 30.1 in Calm   1 mph 70% 0 in 0 W/m2
00:46 62.6 °F 52.7 °F 30.1 in Calm     70% 0 in 0 W/m2
00:51 62.4 °F 52.5 °F 30.1 in SE 0.9 mph 1 mph 70% 0 in 0 W/m2
00:56 62.2 °F 52.3 °F 30.1 in SE 0.9 mph 2 mph 70% 0 in 0 W/m2
01:01 62.2 °F 52.3 °F 30.1 in Calm   2 mph 70% 0 in 0 W/m2
01:06 62.2 °F 52.3 °F 30.1 in Calm   1 mph 70% 0 in 0 W/m2
01:11 62.2 °F 52 °F 30.1 in Calm   2 mph 69% 0 in 0 W/m2
01:16 62.1 °F 51.8 °F 30.1 in Calm   1 mph 69% 0 in 0 W/m2
01:21 62.1 °F 52.2 °F 30.1 in Calm     70% 0 in 0 W/m2
01:26 61.9 °F 52 °F 30.1 in Calm     70% 0 in 0 W/m2
01:31 61.5 °F 51.6 °F 30.1 in Calm     70% 0 in 0 W/m2
01:36 61.3 °F 51.8 °F 30.1 in Calm   2 mph 71% 0 in 0 W/m2
01:41 61.2 °F 51.6 °F 30.1 in Calm     71% 0 in 0 W/m2
01:46 61 °F 52 °F 30 in Calm   1 mph 72% 0 in 0 W/m2
01:51 60.8 °F 51.8 °F 30 in Calm     72% 0 in 0 W/m2
01:56 60.6 °F 51.6 °F 30 in Calm   1 mph 72% 0 in 0 W/m2
02:01 60.4 °F 51.4 °F 30 in Calm     72% 0 in 0 W/m2
02:06 60.4 °F 51.4 °F 30 in Calm     72% 0 in 0 W/m2
02:11 60.4 °F 51.4 °F 30 in ENE 0.9 mph 1 mph 72% 0 in 0 W/m2
02:16 60.4 °F 51.4 °F 30 in Calm   1 mph 72% 0 in 0 W/m2
02:21 60.6 °F 51.1 °F 30 in Calm   1 mph 71% 0 in 0 W/m2
02:26 61 °F 51.4 °F 30 in Calm   2 mph 71% 0 in 0 W/m2
02:31 61.3 °F 51.4 °F 30 in Calm     70% 0 in 0 W/m2
02:36 61.3 °F 51.4 °F 30 in Calm   1 mph 70% 0 in 0 W/m2
02:41 61.2 °F 51.3 °F 30 in Calm   1 mph 70% 0 in 0 W/m2
02:46 61.2 °F 51.3 °F 30 in Calm     70% 0 in 0 W/m2
02:51 61 °F 51.1 °F 30 in Calm     70% 0 in 0 W/m2
02:56 60.8 °F 51.3 °F 30 in Calm     71% 0 in 0 W/m2
03:01 60.6 °F 51.1 °F 30 in Calm     71% 0 in 0 W/m2
03:06 60.3 °F 51.3 °F 30 in Calm     72% 0 in 0 W/m2
03:11 60.1 °F 51.1 °F 30 in Calm   1 mph 72% 0 in 0 W/m2
03:16 60.1 °F 51.4 °F 30 in Calm     73% 0 in 0 W/m2
03:21 59.7 °F 51.1 °F 30 in Calm   1 mph 73% 0 in 0 W/m2
03:26 59.7 °F 51.1 °F 30 in Calm     73% 0 in 0 W/m2
03:31 59.5 °F 50.9 °F 30 in Calm   1 mph 73% 0 in 0 W/m2
03:37 59.4 °F 51.1 °F 30 in Calm     74% 0 in 0 W/m2
03:42 59.4 °F 51.1 °F 30 in Calm   2 mph 74% 0 in 0 W/m2
03:47 59.4 °F 51.1 °F 30 in SE 0.9 mph 1 mph 74% 0 in 0 W/m2
03:52 59.4 °F 51.1 °F 30 in Calm   1 mph 74% 0 in 0 W/m2
03:57 59.4 °F 51.1 °F 30 in Calm   1 mph 74% 0 in 0 W/m2
04:02 59.2 °F 50.9 °F 30 in Calm   1 mph 74% 0 in 0 W/m2
04:07 59.2 °F 51.3 °F 30 in Calm   2 mph 75% 0 in 0 W/m2
04:12 59 °F 51.1 °F 30 in SE 0.9 mph 1 mph 75% 0 in 0 W/m2
04:17 58.8 °F 50.9 °F 30 in Calm   2 mph 75% 0 in 0 W/m2
04:22 58.8 °F 50.9 °F 30 in Calm     75% 0 in 0 W/m2
04:27 58.6 °F 50.7 °F 30 in Calm     75% 0 in 0 W/m2
04:32 58.6 °F 50.7 °F 30 in Calm     75% 0 in 0 W/m2
04:37 58.5 °F 50.9 °F 30 in Calm     76% 0 in 0 W/m2
04:42 58.5 °F 50.9 °F 30 in SE 0.9 mph 1 mph 76% 0 in 0 W/m2
04:47 58.5 °F 50.9 °F 30 in Calm     76% 0 in 0 W/m2
04:52 58.3 °F 50.7 °F 30 in Calm     76% 0 in 0 W/m2
04:57 58.3 °F 50.7 °F 30 in Calm     76% 0 in 0 W/m2
05:02 58.1 °F 50.5 °F 30 in Calm     76% 0 in 0 W/m2
05:07 57.9 °F 50.7 °F 30 in Calm   1 mph 77% 0 in 0 W/m2
05:12 57.9 °F 50.7 °F 30 in Calm     77% 0 in 0 W/m2
05:17 57.7 °F 50.5 °F 30 in Calm   1 mph 77% 0 in 0 W/m2
05:22 57.6 °F 50.4 °F 30 in Calm     77% 0 in 0 W/m2
05:27 57.6 °F 50.4 °F 30 in Calm     77% 0 in 0 W/m2
05:32 57.6 °F 50.4 °F 30 in Calm   3 mph 77% 0 in 0 W/m2
05:37 57.6 °F 50.4 °F 30 in Calm     77% 0 in 0 W/m2
05:42 57.7 °F 50.2 °F 30 in Calm   1 mph 76% 0 in 0 W/m2
05:47 57.7 °F 50.2 °F 30 in Calm     76% 0 in 0 W/m2
05:52 57.7 °F 50.2 °F 30 in Calm     76% 0 in 0 W/m2
05:57 57.7 °F 50.2 °F 30 in Calm     76% 0 in 0 W/m2
06:02 57.6 °F 50 °F 30 in Calm     76% 0 in 0 W/m2
06:07 57.6 °F 50 °F 30 in Calm     76% 0 in 0 W/m2
06:12 57.4 °F 49.8 °F 30 in Calm     76% 0 in 0 W/m2
06:17 57.2 °F 50 °F 30 in Calm     77% 0 in 0 W/m2
06:22 57 °F 49.8 °F 30 in Calm     77% 0 in 0 W/m2
06:27 56.8 °F 49.6 °F 30 in Calm     77% 0 in 0 W/m2
06:32 56.8 °F 49.6 °F 30 in Calm     77% 0 in 0 W/m2
06:37 56.7 °F 49.8 °F 30 in Calm     78% 0 in 0 W/m2
06:42 56.7 °F 49.8 °F 30 in Calm     78% 0 in 0 W/m2
06:47 56.7 °F 49.8 °F 30 in Calm     78% 0 in 0 W/m2
06:52 56.5 °F 49.6 °F 30 in Calm     78% 0 in 0 W/m2
06:57 56.3 °F 49.5 °F 30 in Calm     78% 0 in 0 W/m2
07:02 56.1 °F 49.3 °F 30 in Calm     78% 0 in 0 W/m2
07:07 56.1 °F 49.3 °F 30 in Calm     78% 0 in 0 W/m2
07:12 56.1 °F 49.3 °F 30 in Calm     78% 0 in 0 W/m2
07:17 56.1 °F 49.3 °F 30 in Calm     78% 0 in 0 W/m2
07:22 56.1 °F 49.3 °F 30 in Calm     78% 0 in 5 W/m2
07:28 56.3 °F 49.5 °F 30 in Calm     78% 0 in 7 W/m2
07:33 56.5 °F 49.6 °F 30 in Calm   1 mph 78% 0 in 11 W/m2
07:38 56.7 °F 49.5 °F 30 in Calm   1 mph 77% 0 in 12 W/m2
07:43 56.8 °F 49.6 °F 30 in Calm     77% 0 in 18 W/m2
07:48 57 °F 49.8 °F 30 in Calm   1 mph 77% 0 in 21 W/m2
07:53 57 °F 49.5 °F 30 in Calm     76% 0 in 28 W/m2
07:58 57.2 °F 49.6 °F 30 in SE 0.9 mph 1 mph 76% 0 in 32 W/m2
08:03 57.4 °F 49.8 °F 30 in ENE 0.9 mph 2 mph 76% 0 in 33 W/m2
08:08 57.6 °F 49.6 °F 30 in East 2 mph 2 mph 75% 0 in 32 W/m2
08:13 57.9 °F 49.6 °F 30 in East 2 mph 2 mph 74% 0 in 28 W/m2
08:18 58.1 °F 49.5 °F 30 in Calm   3 mph 73% 0 in 26 W/m2
08:23 58.3 °F 49.3 °F 30 in Calm   1 mph 72% 0 in 26 W/m2
08:28 58.5 °F 49.5 °F 30 in NE 0.9 mph 1 mph 72% 0 in 30 W/m2
08:33 58.5 °F 49.1 °F 30 in Calm   2 mph 71% 0 in 74 W/m2
08:38 58.6 °F 48.9 °F 30 in Calm   1 mph 70% 0 in 44 W/m2
08:43 58.6 °F 48.9 °F 30 in Calm   2 mph 70% 0 in 40 W/m2
08:48 58.8 °F 48.2 °F 30 in NE 0.9 mph 3 mph 68% 0 in 42 W/m2
08:53 59.4 °F 48.4 °F 30 in Calm   3 mph 67% 0 in 46 W/m2
08:58 59.7 °F 48.7 °F 30 in South 0.9 mph 2 mph 67% 0 in 51 W/m2
09:03 60.1 °F 48.7 °F 30 in Calm   3 mph 66% 0 in 125 W/m2
09:08 60.3 °F 48.9 °F 30 in Calm   3 mph 66% 0 in 144 W/m2
09:13 60.4 °F 48.6 °F 30 in ESE 0.9 mph 2 mph 65% 0 in 98 W/m2
09:18 61 °F 48.7 °F 30 in NE 0.9 mph 2 mph 64% 0 in 56 W/m2
09:23 61.3 °F 49.1 °F 30 in East 2 mph 3 mph 64% 0 in 62 W/m2
09:28 61.9 °F 49.1 °F 30 in ENE 0.9 mph 3 mph 63% 0 in 69 W/m2
09:33 62.2 °F 49.1 °F 30 in East 2 mph 3 mph 62% 0 in 72 W/m2
09:38 62.4 °F 48.7 °F 30 in NE 4 mph 4 mph 61% 0 in 76 W/m2
09:43 62.8 °F 49.1 °F 30 in SE 0.9 mph 3 mph 61% 0 in 72 W/m2
09:48 63.1 °F 49.5 °F 30 in Calm   1 mph 61% 0 in 72 W/m2
09:53 63.3 °F 48.7 °F 30 in NNE 0.9 mph 4 mph 59% 0 in 70 W/m2
09:58 63.3 °F 49.3 °F 30 in East 2.9 mph 4 mph 60% 0 in 70 W/m2
10:03 63.7 °F 49.1 °F 30 in East 2 mph 5 mph 59% 0 in 70 W/m2
10:08 63.9 °F 49.3 °F 30 in NE 0.9 mph 5 mph 59% 0 in 69 W/m2
10:13 64 °F 49.5 °F 30 in NW 2 mph 5 mph 59% 0 in 70 W/m2
10:18 64.2 °F 49.6 °F 30 in NNW 0.9 mph 2 mph 59% 0 in 76 W/m2
10:23 64.8 °F 50.2 °F 30 in ENE 0.9 mph 5 mph 59% 0 in 77 W/m2
10:28 65.1 °F 50 °F 30 in East 0.9 mph 4 mph 58% 0 in 79 W/m2
10:33 65.7 °F 50 °F 30 in ENE 0.9 mph 3 mph 57% 0 in 81 W/m2
10:38 65.8 °F 50.7 °F 30 in Calm   2 mph 58% 0 in 83 W/m2
10:43 66 °F 50.4 °F 30 in ESE 2.9 mph 4 mph 57% 0 in 84 W/m2
10:48 66.4 °F 50.7 °F 30 in East 2 mph 7 mph 57% 0 in 88 W/m2
10:54 66.7 °F 50.5 °F 30 in ENE 2.9 mph 4 mph 56% 0 in 88 W/m2
10:59 66.9 °F 50.2 °F 30 in ENE 2.9 mph 7 mph 55% 0 in 88 W/m2
11:04 66.9 °F 50.2 °F 30 in NE 0.9 mph 3 mph 55% 0 in 90 W/m2
11:09 66.9 °F 50.7 °F 30 in SSE 0.9 mph 6 mph 56% 0 in 91 W/m2
11:14 67.1 °F 50.9 °F 30 in NE 2.9 mph 4 mph 56% 0 in 91 W/m2
11:19 67.3 °F 51.1 °F 30 in ESE 2 mph 3 mph 56% 0 in 93 W/m2
11:24 67.5 °F 51.3 °F 30 in ENE 2 mph 2 mph 56% 0 in 98 W/m2
11:29 67.8 °F 51.1 °F 30 in NE 2.9 mph 5 mph 55% 0 in 104 W/m2
11:34 67.8 °F 51.6 °F 30 in East 0.9 mph 4 mph 56% 0 in 105 W/m2
11:39 68.4 °F 51.6 °F 30 in NNE 0.9 mph 3 mph 55% 0 in 153 W/m2
11:44 68.7 °F 52 °F 30 in SE 0.9 mph 4 mph 55% 0 in 461 W/m2
11:49 69.3 °F 52 °F 30 in North 0.9 mph 5 mph 54% 0 in 501 W/m2
11:54 69.4 °F 52.2 °F 30 in Calm   3 mph 54% 0 in 512 W/m2
11:59 69.6 °F 52.2 °F 30 in East 0.9 mph 5 mph 54% 0 in 526 W/m2
12:04 70.2 °F 52.7 °F 30 in ENE 2.9 mph 8 mph 54% 0 in 550 W/m2
12:09 70.7 °F 53.2 °F 30 in SE 0.9 mph 2 mph 54% 0 in 559 W/m2
12:14 71.6 °F 53.6 °F 30 in ENE 2.9 mph 8 mph 53% 0 in 564 W/m2
12:19 72.3 °F 53.2 °F 30 in ESE 0.9 mph 4 mph 51% 0 in 554 W/m2
12:24 72.9 °F 53.6 °F 30 in NW 0.9 mph 4 mph 51% 0 in 531 W/m2
12:29 72.9 °F 53.6 °F 30 in ESE 2.9 mph 4 mph 51% 0 in 534 W/m2
12:34 73.2 °F 54 °F 30 in ENE 2 mph 3 mph 51% 0 in 557 W/m2
12:39 73.2 °F 54 °F 30 in North 4 mph 5 mph 51% 0 in 580 W/m2
12:44 73.2 °F 54 °F 30 in ENE 0.9 mph 5 mph 51% 0 in 596 W/m2
12:49 73.6 °F 53.8 °F 30 in NNW 0.9 mph 3 mph 50% 0 in 606 W/m2
12:54 73.8 °F 54.5 °F 30 in Calm   5 mph 51% 0 in 615 W/m2
12:59 73.9 °F 54.1 °F 30 in North 2.9 mph 3 mph 50% 0 in 541 W/m2
13:04 73.9 °F 54.7 °F 30 in East 0.9 mph 3 mph 51% 0 in 540 W/m2
13:09 74.3 °F 54.5 °F 30 in NE 2 mph 4 mph 50% 0 in 533 W/m2
13:14 74.7 °F 54.9 °F 30 in Calm   3 mph 50% 0 in 526 W/m2
13:19 75 °F 55 °F 30 in North 0.9 mph 3 mph 50% 0 in 527 W/m2
13:24 74.8 °F 55.6 °F 30 in NNE 0.9 mph 1 mph 51% 0 in 596 W/m2
13:29 75.2 °F 55.2 °F 30 in North 0.9 mph 3 mph 50% 0 in 559 W/m2
13:34 75.4 °F 55.4 °F 30 in ESE 2 mph 2 mph 50% 0 in 287 W/m2
13:39 75.6 °F 56.1 °F 30 in Calm   3 mph 51% 0 in 332 W/m2
13:44 75.6 °F 55.6 °F 30 in Calm   2 mph 50% 0 in 265 W/m2
13:49 75.7 °F 55.8 °F 30 in ESE 0.9 mph 3 mph 50% 0 in 348 W/m2
13:54 75.7 °F 55.8 °F 30 in Calm   2 mph 50% 0 in 413 W/m2
13:59 76.1 °F 56.7 °F 30 in ENE 2.9 mph 4 mph 51% 0 in 322 W/m2
14:04 76.5 °F 56.5 °F 30 in ESE 2 mph 2 mph 50% 0 in 287 W/m2
14:09 76.5 °F 56.5 °F 30 in East 0.9 mph 2 mph 50% 0 in 274 W/m2
14:14 76.5 °F 56.5 °F 30 in Calm   1 mph 50% 0 in 276 W/m2
14:19 76.6 °F 56.1 °F 30 in SE 0.9 mph 3 mph 49% 0 in 323 W/m2
14:24 76.6 °F 56.1 °F 30 in NE 0.9 mph 3 mph 49% 0 in 339 W/m2
14:29 76.8 °F 56.3 °F 30 in SSE 2 mph 3 mph 49% 0 in 274 W/m2
14:34 76.8 °F 56.3 °F 30 in East 0.9 mph 2 mph 49% 0 in 214 W/m2
14:39 76.8 °F 56.8 °F 30 in Calm   3 mph 50% 0 in 223 W/m2
14:44 76.8 °F 56.3 °F 30 in East 0.9 mph 2 mph 49% 0 in 209 W/m2
14:49 76.8 °F 56.3 °F 30 in Calm   2 mph 49% 0 in 192 W/m2
14:54 76.6 °F 56.1 °F 30 in Calm   2 mph 49% 0 in 197 W/m2
14:59 76.8 °F 56.8 °F 30 in NE 2 mph 2 mph 50% 0 in 262 W/m2
15:04 76.8 °F 56.8 °F 30 in ESE 0.9 mph 2 mph 50% 0 in 232 W/m2
15:09 77.2 °F 56.5 °F 30 in ENE 2 mph 2 mph 49% 0 in 199 W/m2
15:14 77.4 °F 56.7 °F 30 in East 2 mph 4 mph 49% 0 in 225 W/m2
15:20 77.4 °F 57.2 °F 30 in ESE 0.9 mph 1 mph 50% 0 in 234 W/m2
15:25 77.4 °F 57.2 °F 30 in ENE 0.9 mph 4 mph 50% 0 in 218 W/m2
15:30 77.5 °F 57.4 °F 30 in Calm   3 mph 50% 0 in 186 W/m2
15:35 77.5 °F 57.4 °F 30 in ENE 2 mph 4 mph 50% 0 in 183 W/m2
15:40 77.5 °F 57.4 °F 30 in ENE 2 mph 3 mph 50% 0 in 183 W/m2
15:45 77.5 °F 57.4 °F 30 in ESE 2 mph 4 mph 50% 0 in 172 W/m2
15:50 77.5 °F 57.4 °F 30 in ENE 2 mph 3 mph 50% 0 in 165 W/m2
15:55 77.4 °F 57.2 °F 30 in ENE 0.9 mph 2 mph 50% 0 in 127 W/m2
16:00 77.4 °F 57.7 °F 30 in Calm   2 mph 51% 0 in 125 W/m2
16:05 77.2 °F 57.7 °F 30 in Calm   1 mph 51% 0 in 132 W/m2
16:10 77.2 °F 58.6 °F 30 in ESE 0.9 mph 1 mph 53% 0 in 135 W/m2
16:15 77.2 °F 57.7 °F 30 in ESE 0.9 mph 1 mph 51% 0 in 134 W/m2
16:21 77.4 °F 57.7 °F 30 in ESE 2 mph 4 mph 51% 0 in 127 W/m2
16:26 77.4 °F 57.7 °F 30 in East 2 mph 2 mph 51% 0 in 125 W/m2
16:31 77.4 °F 58.3 °F 29.9 in ESE 0.9 mph 1 mph 52% 0 in 127 W/m2
16:36 77.4 °F 58.3 °F 29.9 in Calm     52% 0 in 116 W/m2
16:41 77.5 °F 57.9 °F 29.9 in NE 0.9 mph 3 mph 51% 0 in 104 W/m2
16:46 77.5 °F 59 °F 29.9 in NE 0.9 mph 1 mph 53% 0 in 104 W/m2
16:51 77.7 °F 58.6 °F 29.9 in ENE 0.9 mph 3 mph 52% 0 in 105 W/m2
16:56 77.5 °F 58.5 °F 29.9 in ENE 0.9 mph 2 mph 52% 0 in 105 W/m2
17:01 77.5 °F 57.9 °F 29.9 in Calm   1 mph 51% 0 in 95 W/m2
17:06 77.5 °F 58.5 °F 29.9 in ENE 0.9 mph 1 mph 52% 0 in 86 W/m2
17:11 77.4 °F 57.7 °F 29.9 in East 0.9 mph 2 mph 51% 0 in 84 W/m2
17:16 77.5 °F 58.5 °F 29.9 in SSE 2.9 mph 4 mph 52% 0 in 88 W/m2
17:21 77.4 °F 58.3 °F 29.9 in Calm   4 mph 52% 0 in 91 W/m2
17:26 77.5 °F 59 °F 29.9 in Calm     53% 0 in 91 W/m2
17:31 77.4 °F 58.8 °F 29.9 in Calm   4 mph 53% 0 in 95 W/m2
17:36 77.4 °F 58.8 °F 29.9 in East 0.9 mph 2 mph 53% 0 in 88 W/m2
17:41 77.4 °F 58.8 °F 29.9 in Calm   3 mph 53% 0 in 84 W/m2
17:46 77.4 °F 59.9 °F 29.9 in Calm   1 mph 55% 0 in 83 W/m2
17:51 77.4 °F 59.4 °F 29.9 in Calm   2 mph 54% 0 in 86 W/m2
17:56 77.2 °F 59.7 °F 29.9 in Calm   1 mph 55% 0 in 81 W/m2
18:01 77.2 °F 59.7 °F 29.9 in Calm   2 mph 55% 0 in 77 W/m2
18:06 77 °F 59.5 °F 29.9 in Calm   1 mph 55% 0 in 74 W/m2
18:11 77 °F 60.1 °F 29.9 in Calm     56% 0 in 69 W/m2
18:16 77 °F 60.1 °F 29.9 in Calm     56% 0 in 67 W/m2
18:21 76.8 °F 59.9 °F 29.9 in Calm     56% 0 in 63 W/m2
18:26 76.6 °F 60.3 °F 29.9 in Calm     57% 0 in 54 W/m2
18:31 76.6 °F 60.3 °F 29.9 in Calm     57% 0 in 49 W/m2
18:36 76.5 °F 59.5 °F 29.9 in Calm     56% 0 in 70 W/m2
18:41 76.5 °F 60.1 °F 29.9 in Calm     57% 0 in 44 W/m2
18:46 76.3 °F 59.9 °F 29.9 in Calm     57% 0 in 44 W/m2
18:51 75.9 °F 60.1 °F 29.9 in Calm     58% 0 in 44 W/m2
18:56 75.7 °F 59.9 °F 29.9 in Calm     58% 0 in 40 W/m2
19:01 75.6 °F 59.7 °F 29.9 in Calm   1 mph 58% 0 in 37 W/m2
19:06 75.4 °F 60.1 °F 29.9 in Calm     59% 0 in 30 W/m2
19:11 75 °F 59.7 °F 29.9 in Calm   1 mph 59% 0 in 25 W/m2
19:16 74.7 °F 59.4 °F 29.9 in Calm     59% 0 in 19 W/m2
19:21 74.5 °F 59.2 °F 29.9 in Calm     59% 0 in 16 W/m2
19:26 74.1 °F 59.4 °F 29.9 in Calm     60% 0 in 12 W/m2
19:31 73.9 °F 59.2 °F 29.9 in Calm     60% 0 in 5 W/m2
19:36 73.6 °F 58.8 °F 29.9 in Calm     60% 0 in 0 W/m2
19:41 73.2 °F 59 °F 29.9 in Calm     61% 0 in 0 W/m2
19:46 72.9 °F 58.6 °F 29.9 in SE 0.9 mph 1 mph 61% 0 in 0 W/m2
19:51 72.7 °F 58.5 °F 29.9 in Calm   1 mph 61% 0 in 0 W/m2
19:56 72.3 °F 58.6 °F 29.9 in Calm   1 mph 62% 0 in 0 W/m2
20:01 72 °F 58.3 °F 29.9 in Calm     62% 0 in 0 W/m2
20:06 71.8 °F 58.5 °F 29.9 in Calm   1 mph 63% 0 in 0 W/m2
20:11 71.4 °F 58.1 °F 29.9 in Calm     63% 0 in 0 W/m2
20:16 71.2 °F 58.5 °F 29.9 in Calm   1 mph 64% 0 in 0 W/m2
20:22 70.9 °F 58.1 °F 29.9 in Calm     64% 0 in 0 W/m2
20:27 70.5 °F 58.1 °F 29.9 in Calm   1 mph 65% 0 in 0 W/m2
20:32 70.3 °F 58.5 °F 29.9 in Calm     66% 0 in 0 W/m2
20:37 70.2 °F 58.3 °F 29.9 in Calm     66% 0 in 0 W/m2
20:42 69.8 °F 58.3 °F 29.9 in Calm     67% 0 in 0 W/m2
20:47 69.4 °F 57.9 °F 29.9 in Calm     67% 0 in 0 W/m2
20:52 69.3 °F 57.9 °F 29.9 in Calm     67% 0 in 0 W/m2
20:57 69.1 °F 58.1 °F 29.9 in Calm     68% 0 in 0 W/m2
21:02 68.7 °F 57.7 °F 29.9 in Calm     68% 0 in 0 W/m2
21:07 68.5 °F 57.6 °F 29.9 in Calm     68% 0 in 0 W/m2
21:12 68.4 °F 57.7 °F 29.9 in SE 0.9 mph 2 mph 69% 0 in 0 W/m2
21:17 68.4 °F 57.7 °F 29.9 in SE 0.9 mph 1 mph 69% 0 in 0 W/m2
21:22 68.4 °F 57.7 °F 29.9 in Calm     69% 0 in 0 W/m2
21:27 68.4 °F 57.7 °F 30 in Calm   2 mph 69% 0 in 0 W/m2
21:32 68.2 °F 58.1 °F 30 in Calm   1 mph 70% 0 in 0 W/m2
21:37 68 °F 57.9 °F 30 in Calm   2 mph 70% 0 in 0 W/m2
21:42 67.6 °F 57.6 °F 30 in SSW 0.9 mph 1 mph 70% 0 in 0 W/m2
21:47 67.5 °F 57.7 °F 30 in Calm     71% 0 in 0 W/m2
21:52 67.3 °F 57.6 °F 30 in Calm     71% 0 in 0 W/m2
21:57 66.9 °F 57.6 °F 30 in Calm     72% 0 in 0 W/m2
22:02 66.7 °F 57.4 °F 30 in Calm     72% 0 in 0 W/m2
22:07 66.6 °F 57.6 °F 30 in Calm   1 mph 73% 0 in 0 W/m2
22:12 66.4 °F 57.9 °F 30 in Calm   1 mph 74% 0 in 0 W/m2
22:17 66 °F 57.6 °F 30 in Calm     74% 0 in 0 W/m2
22:22 65.8 °F 57.4 °F 30 in Calm     74% 0 in 0 W/m2
22:27 65.7 °F 57.6 °F 30 in Calm     75% 0 in 0 W/m2
22:32 65.5 °F 57.4 °F 30 in Calm     75% 0 in 0 W/m2
22:37 65.3 °F 57.2 °F 30 in Calm     75% 0 in 0 W/m2
22:42 65.1 °F 57 °F 30 in Calm     75% 0 in 0 W/m2
22:47 64.9 °F 57.2 °F 30 in Calm     76% 0 in 0 W/m2
22:52 64.8 °F 57 °F 30 in Calm     76% 0 in 0 W/m2
22:57 64.6 °F 56.8 °F 30 in Calm     76% 0 in 0 W/m2
23:02 64.6 °F 56.5 °F 30 in Calm     75% 0 in 0 W/m2
23:07 64.4 °F 56.3 °F 30 in Calm     75% 0 in 0 W/m2
23:12 64.2 °F 56.1 °F 30 in Calm     75% 0 in 0 W/m2
23:17 64.2 °F 56.1 °F 30 in Calm     75% 0 in 0 W/m2
23:22 64.2 °F 55.8 °F 30 in Calm     74% 0 in 0 W/m2
23:27 64 °F 55.6 °F 30 in Calm     74% 0 in 0 W/m2
23:32 63.9 °F 55.4 °F 30 in Calm     74% 0 in 0 W/m2
23:37 63.9 °F 55.4 °F 30 in Calm     74% 0 in 0 W/m2
23:42 63.7 °F 55.2 °F 30 in Calm     74% 0 in 0 W/m2
23:47 63.7 °F 55.2 °F 30 in Calm     74% 0 in 0 W/m2
23:52 63.5 °F 54.7 °F 30 in Calm     73% 0 in 0 W/m2
23:57 63.3 °F 54.5 °F 30 in Calm     73% 0 in 0 W/m2
Juneau County Weather
Compliments of Weather Underground - 4 mb